レナード彗星

486P/Leonard (2018)

English version
Home page
Updated on July 27, 2024

---------------------------------------------------------------------

・ プロフィール

符号 486P/2018 L5
発見日 2018年6月14日
発見光度 18.5等
発見者 G. J. Leonard (Mount Lemmon)

・ 写真集

・ 軌道要素

Epoch 2018 May 2.0 TT = JDT 2458240.5                                           
T 2018 May 4.47981 TT                                   Rudenko                 
q   2.3033288            (2000.0)            P               Q                  
n   0.14286907     Peri.   93.63880     +0.67892369     +0.73380523             
a   3.6239086      Node   219.15735     -0.68800080     +0.62426965             
e   0.3644076      Incl.    2.20920     -0.25635429     +0.26798746             
P   6.90                                                                        
>From 232 observations 2018 June 8-2024 May 29, mean residual 0".7.              

・ 光度変化

        m1 = 13.5 + 5 logΔ + 10.0 log r

---------------------------------------------------------------------

軌道要素はM.P.E.C. 2024-K145に掲載されたものです。
光度グラフはComet for Windowsで作成したものです。

---------------------------------------------------------------------

Copyright(C) Seiichi Yoshida (comet@aerith.net). All rights reserved.